1513530000.31,25799,7.19,72696.8,-16.65,-46.49,-46.35,0,*6F
1513530001.61,25800,7.19,72698.8,-16.65,-46.49,-46.27,0,*63
1513530002.85,25801,7.19,72696.5,-16.65,-46.55,-46.35,0,*6C
1513530004.12,25802,7.19,72698.5,-16.65,-46.55,-46.49,0,*64
1513530005.38,25803,7.19,72696.8,-16.65,-46.69,-46.35,0,*61
1513530006.65,25804,7.19,72700.3,-16.63,-46.49,-46.27,0,*61
1513530007.89,25805,7.19,72696.8,-16.63,-46.55,-46.49,0,*65
1513530009.16,25806,7.19,72698.3,-16.63,-46.69,-46.49,0,*69
1513530010.4,25807,7.19,72694.3,-16.63,-46.97,-46.89,0,*65
1513530011.65,25808,7.19,72696.5,-16.63,-46.97,-46.89,0,*6A
1513530012.86,25809,7.19,72692.3,-16.63,-47.09,-46.97,0,*62
1513530014.08,25810,7.19,72698.3,-16.63,-46.97,-46.97,0,*6C
1513530015.29,25811,7.19,72698.0,-16.63,-47.17,-46.97,0,*64
1513530016.5,25812,7.19,72700.5,-16.63,-47.17,-47.09,0,*61
1513530017.77,25813,7.19,72700.3,-16.61,-47.37,-47.31,0,*6B
1513530018.98,25814,7.19,72702.3,-16.63,-47.09,-47.09,0,*68
1513530020.22,25815,7.19,72692.0,-16.65,-47.17,-47.09,0,*60
1513530021.45,25816,7.19,72692.8,-16.63,-47.45,-47.17,0,*6D
1513530022.68,25817,7.19,72696.0,-16.65,-47.65,-47.57,0,*6C
1513530023.89,25818,7.19,72698.3,-16.63,-47.65,-47.57,0,*65
1513530025.15,25819,7.19,72696.3,-16.65,-47.79,-47.57,0,*6F
1513530026.38,25820,7.19,72700.3,-16.65,-47.65,-47.57,0,*68
1513530027.64,25821,7.19,72696.8,-16.65,-47.57,-47.37,0,*6E
1513530028.88,25822,7.19,72696.3,-16.65,-47.31,-47.17,0,*6F
1513530030.12,25823,7.19,72698.3,-16.63,-47.45,-47.17,0,*6B
1513530031.38,25824,7.19,72696.5,-16.65,-47.57,-47.37,0,*6B
1513530032.61,25825,7.19,72702.5,-16.65,-47.17,-47.09,0,*63
1513530033.85,25826,7.19,72702.0,-16.65,-47.17,-47.09,0,*60
1513530035.08,25827,7.19,72698.3,-16.65,-47.31,-47.09,0,*65
1513530036.32,25828,7.19,72702.3,-16.65,-47.31,-47.09,0,*6A
1513530037.59,25829,7.19,72696.5,-16.65,-47.45,-47.31,0,*63
1513530038.83,25830,7.19,72696.3,-16.67,-47.65,-47.37,0,*6D
1513530040.1,25831,7.19,72702.0,-16.67,-47.37,-47.23,0,*6E
1513530041.37,25832,7.19,72696.5,-16.67,-47.45,-47.37,0,*6D
1513530042.65,25833,7.19,72698.8,-16.67,-47.45,-47.23,0,*69
1513530043.89,25834,7.19,72692.0,-16.67,-47.65,-47.45,0,*6C
1513530045.13,25835,7.19,72698.3,-16.67,-47.65,-47.45,0,*6D
1513530046.39,25836,7.19,72696.5,-16.67,-47.71,-47.37,0,*6E
1513530047.65,25837,7.19,72694.8,-16.69,-47.51,-47.45,0,*66
1513530048.89,25838,7.19,72696.0,-16.67,-47.65,-47.37,0,*65
1513530050.18,25839,7.19,72696.0,-16.69,-47.71,-47.45,0,*6A
1513530051.41,25840,7.19,72698.0,-16.67,-47.71,-47.51,0,*6F
1513530052.65,25841,7.19,72698.0,-16.67,-47.65,-47.37,0,*6B
1513530053.89,25842,7.19,72698.8,-16.67,-47.51,-47.37,0,*6F
1513530055.16,25843,7.19,72696.0,-16.69,-47.45,-47.17,0,*67
1513530056.4,25844,7.19,72698.0,-16.67,-47.45,-47.17,0,*6E
1513530057.67,25845,7.19,72696.8,-16.67,-47.37,-47.23,0,*6D
1513530058.94,25846,7.19,72696.8,-16.67,-47.37,-47.23,0,*6E
1513530060.2,25847,7.19,72694.8,-16.69,-47.65,-47.37,0,*63
1513530061.47,25848,7.19,72696.3,-16.69,-47.51,-47.37,0,*6B
1513530062.71,25849,7.19,72698.0,-16.67,-47.51,-47.45,0,*61
1513530063.94,25850,7.19,72696.8,-16.67,-47.71,-47.51,0,*6E
1513530065.21,25851,7.19,72698.8,-16.69,-47.51,-47.45,0,*66
1513530066.42,25852,7.19,72702.3,-16.67,-47.65,-47.51,0,*69
1513530067.66,25853,7.19,72702.8,-16.69,-47.65,-47.51,0,*66
1513530068.94,25854,7.19,72700.5,-16.69,-47.71,-47.45,0,*61
1513530070.21,25855,7.19,72700.5,-16.69,-47.65,-47.45,0,*65
1513530071.47,25856,7.19,72700.3,-16.69,-47.71,-47.51,0,*66
1513530072.73,25857,7.19,72696.8,-16.69,-47.65,-47.45,0,*67
1513530073.99,25858,7.19,72696.8,-16.69,-47.17,-47.03,0,*6F
1513530075.25,25859,7.19,72700.5,-16.69,-47.23,-47.17,0,*6C
1513530076.51,25860,7.19,72700.0,-16.69,-47.65,-47.37,0,*66
1513530077.78,25861,7.19,72700.0,-16.73,-47.57,-47.45,0,*68
1513530079.02,25862,7.19,72696.5,-16.73,-47.51,-47.31,0,*6E
1513530080.31,25863,7.19,72700.8,-16.73,-47.93,-47.71,0,*65
1513530081.59,25864,7.19,72700.5,-16.73,-47.93,-47.71,0,*62
1513530082.83,25865,7.19,72698.0,-16.75,-47.79,-47.57,0,*65
1513530084.13,25866,7.19,72696.3,-16.73,-47.45,-47.23,0,*6C
1513530085.4,25867,7.19,72698.3,-16.75,-47.45,-47.23,0,*6B
1513530086.67,25868,7.19,72698.8,-16.73,-47.57,-47.45,0,*61
1513530087.91,25869,7.19,72700.3,-16.75,-47.71,-47.57,0,*61
1513530089.15,25870,7.19,72698.0,-16.75,-47.57,-47.45,0,*6E
1513530090.39,25871,7.19,72700.3,-16.73,-47.57,-47.31,0,*6A
1513530091.63,25872,7.19,72700.3,-16.75,-47.71,-47.51,0,*6D
1513530092.84,25873,7.19,72702.5,-16.75,-47.57,-47.57,0,*6E
1513530094.1,25874,7.19,72696.8,-16.73,-47.93,-47.57,0,*67
1513530095.34,25875,7.19,72700.8,-16.75,-47.99,-47.71,0,*6E
1513530096.61,25876,7.19,72702.8,-16.75,-47.79,-47.71,0,*63
1513530097.84,25877,7.19,72700.3,-16.75,-47.71,-47.51,0,*68
1513530099.1,25878,7.19,72698.3,-16.75,-47.93,-47.93,0,*65
1513530100.37,25879,7.19,72704.5,-16.75,-47.93,-47.79,0,*60
1513530101.61,25880,7.19,72704.8,-16.77,-47.65,-47.57,0,*61
1513530102.85,25881,7.19,72704.5,-16.77,-47.65,-47.51,0,*66
1513530104.11,25882,7.19,72706.3,-16.77,-47.57,-47.37,0,*64
1513530105.38,25883,7.19,72702.0,-16.77,-47.79,-47.57,0,*6F
1513530106.62,25884,7.19,72700.0,-16.79,-47.79,-47.57,0,*66
1513530107.91,25885,7.19,72702.5,-16.77,-47.79,-47.37,0,*6F
1513530109.19,25886,7.19,72700.3,-16.77,-47.37,-47.31,0,*60
1513530110.45,25887,7.19,72702.8,-16.77,-47.57,-47.37,0,*61
1513530111.7,25888,7.19,72704.0,-16.77,-47.85,-47.57,0,*67
1513530112.94,25889,7.19,72700.3,-16.79,-47.85,-47.79,0,*64
1513530114.16,25890,7.19,72700.8,-16.79,-47.85,-47.65,0,*61
1513530115.43,25891,7.19,72700.3,-16.77,-47.79,-47.51,0,*6A
1513530116.7,25892,7.19,72704.3,-16.77,-47.79,-47.51,0,*69
1513530117.9,25893,7.19,72702.5,-16.79,-47.65,-47.57,0,*6D
1513530119.14,25894,7.19,72706.3,-16.79,-47.79,-47.57,0,*67
1513530120.4,25895,7.19,72706.8,-16.81,-48.07,-47.85,0,*68
1513530121.63,25896,7.19,72704.3,-16.79,-47.79,-47.65,0,*64
1513530122.85,25897,7.19,72704.5,-16.79,-47.85,-47.65,0,*66
1513530124.14,25898,7.19,72700.8,-16.81,-47.93,-47.71,0,*6C
1513530125.39,25899,7.19,72704.0,-16.83,-47.85,-47.71,0,*68
1513530126.66,25900,7.19,72700.8,-16.81,-47.93,-47.85,0,*67
1513530127.93,25901,7.19,72700.0,-16.81,-47.93,-47.85,0,*66
1513530129.18,25902,7.19,72700.3,-16.83,-48.07,-47.93,0,*62
1513530130.47,25903,7.19,72704.5,-16.81,-47.93,-47.71,0,*6F
1513530131.7,25904,7.19,72702.5,-16.83,-47.85,-47.65,0,*68
1513530132.93,25905,7.19,72700.8,-16.83,-47.71,-47.57,0,*63
1513530134.16,25906,7.19,72706.3,-16.83,-47.85,-47.65,0,*6A
1513530135.41,25907,7.19,72704.5,-16.83,-47.85,-47.71,0,*6E
1513530136.68,25908,7.19,72704.8,-16.83,-47.93,-47.71,0,*66
1513530137.93,25909,7.19,72706.3,-16.83,-47.85,-47.71,0,*60
1513530139.15,25910,7.19,72708.3,-16.83,-47.85,-47.65,0,*6D
1513530140.44,25911,7.19,72706.3,-16.87,-47.93,-47.93,0,*66
1513530141.67,25912,7.19,72706.8,-16.85,-47.99,-47.93,0,*6D
1513530142.92,25913,7.19,72704.5,-16.85,-47.99,-47.79,0,*68
1513530144.19,25914,7.19,72710.0,-16.87,-47.99,-47.79,0,*6D
1513530145.42,25915,7.19,72704.5,-16.87,-47.65,-47.65,0,*62
1513530146.66,25916,7.19,72704.5,-16.85,-47.93,-47.51,0,*6D
1513530147.92,25917,7.19,72704.3,-16.87,-47.99,-47.93,0,*6A
1513530149.19,25918,7.19,72702.8,-16.85,-48.13,-47.93,0,*6A
1513530150.42,25919,7.19,72700.0,-16.85,-47.71,-47.65,0,*69
1513530151.71,25920,7.19,72708.3,-16.87,-47.93,-47.79,0,*60
1513530153.0,25921,7.19,72704.0,-16.87,-47.93,-47.71,0,*69
1513530154.26,25922,7.19,72704.0,-16.87,-47.71,-47.65,0,*63
1513530155.52,25923,7.19,72704.3,-16.87,-47.71,-47.51,0,*65
1513530156.81,25924,7.19,72706.5,-16.87,-48.13,-47.93,0,*67
1513530158.1,25925,7.19,72706.0,-16.87,-47.79,-47.79,0,*61
1513530159.37,25926,7.19,72710.8,-16.87,-47.65,-47.45,0,*60
1513530160.65,25927,7.19,72710.8,-16.87,-47.71,-47.71,0,*63
1513530161.93,25928,7.19,72704.0,-16.91,-47.85,-47.71,0,*60
1513530163.2,25929,7.19,72704.8,-16.89,-47.79,-47.79,0,*63
1513530164.46,25930,7.19,72706.3,-16.89,-47.93,-47.71,0,*67
1513530165.71,25931,7.19,72702.8,-16.89,-47.99,-47.79,0,*64
1513530166.98,25932,7.19,72704.0,-16.91,-47.99,-47.71,0,*66
1513530168.19,25933,7.19,72704.3,-16.89,-47.99,-47.65,0,*6B
1513530169.49,25934,7.19,72706.8,-16.91,-47.79,-47.71,0,*6E
1513530170.73,25935,7.19,72714.0,-16.89,-47.79,-47.65,0,*63
1513530171.95,25936,7.19,72708.5,-16.89,-47.85,-47.57,0,*62
1513530173.21,25937,7.19,72706.5,-16.89,-47.79,-47.71,0,*64
1513530174.48,25938,7.19,72704.0,-16.91,-47.79,-47.57,0,*66
1513530175.75,25939,7.19,72706.8,-16.91,-47.85,-47.71,0,*60
1513530177.05,25940,7.19,72708.0,-16.91,-47.79,-47.79,0,*65
1513530178.33,25941,7.19,72710.3,-16.91,-47.99,-47.79,0,*6A
1513530179.58,25942,7.19,72710.5,-16.91,-47.85,-47.85,0,*67
1513530180.85,25943,7.19,72710.8,-16.97,-47.79,-47.79,0,*60
1513530182.12,25944,7.19,72706.3,-16.95,-47.79,-47.57,0,*69
1513530183.38,25945,7.19,72706.5,-16.95,-47.79,-47.65,0,*69
1513530184.66,25946,7.19,72708.3,-16.95,-47.93,-47.85,0,*60
1513530185.91,25947,7.19,72710.0,-16.95,-48.07,-47.85,0,*63
1513530187.19,25948,7.19,72708.8,-16.95,-47.85,-47.79,0,*6A
1513530188.49,25949,7.19,72708.5,-16.95,-47.79,-47.79,0,*68
1513530189.73,25950,7.19,72710.5,-16.97,-48.07,-47.93,0,*60
1513530190.96,25951,7.19,72706.8,-16.97,-48.07,-48.07,0,*63
1513530192.23,25952,7.19,72706.3,-16.95,-47.79,-47.57,0,*6E
1513530193.5,25953,7.19,72706.3,-16.95,-47.79,-47.57,0,*6F
1513530194.77,25954,7.19,72706.3,-16.95,-47.85,-47.79,0,*67
1513530196.02,25955,7.19,72708.0,-16.97,-47.85,-47.79,0,*64
1513530197.3,25956,7.19,72704.5,-16.97,-47.45,-47.45,0,*64
1513530198.57,25957,7.19,72704.3,-16.95,-47.45,-47.57,0,*64
1513530199.81,25958,7.19,72708.0,-16.95,-47.65,-47.57,0,*69
1513530201.05,25959,7.19,72706.5,-16.97,-47.79,-47.65,0,*66
1513530202.29,25960,7.19,72704.5,-16.97,-47.79,-47.65,0,*6C
1513530203.51,25961,7.19,72708.5,-16.97,-47.85,-47.65,0,*6E
1513530204.78,25962,7.19,72706.0,-16.99,-47.85,-47.79,0,*6E
1513530206.06,25963,7.19,72710.8,-16.99,-47.85,-47.79,0,*6F
1513530207.34,25964,7.19,72708.5,-16.99,-47.93,-47.85,0,*6C
1513530208.59,25965,7.19,72706.5,-16.99,-48.07,-47.85,0,*6F
1513530209.84,25966,7.19,72704.0,-17.01,-48.07,-47.93,0,*6B
1513530211.1,25967,7.19,72708.0,-16.99,-48.07,-47.85,0,*6D
1513530212.34,25968,7.19,72706.3,-17.01,-47.99,-47.71,0,*61
1513530213.58,25969,7.19,72706.8,-16.99,-47.85,-47.65,0,*68
1513530214.83,25970,7.19,72708.0,-16.99,-47.85,-47.65,0,*60
1513530216.07,25971,7.19,72704.8,-17.01,-47.99,-47.93,0,*65
1513530217.37,25972,7.19,72708.0,-16.99,-47.93,-47.79,0,*68
1513530218.61,25973,7.19,72708.0,-17.01,-47.99,-47.71,0,*6B
1513530219.86,25974,7.19,72708.0,-16.99,-47.85,-47.65,0,*64
1513530221.1,25975,7.19,72704.3,-17.01,-47.99,-47.93,0,*61
1513530222.35,25976,7.19,72710.0,-17.01,-47.93,-47.85,0,*6F
1513530223.62,25977,7.19,72708.0,-17.05,-47.93,-47.79,0,*69
1513530224.89,25978,7.19,72706.3,-17.03,-47.93,-47.85,0,*63
1513530226.19,25979,7.19,72704.8,-17.03,-48.13,-47.93,0,*62
1513530227.45,25980,7.19,72708.5,-17.03,-47.99,-47.93,0,*69
1513530228.7,25981,7.19,72710.5,-17.05,-48.13,-47.99,0,*69
1513530229.94,25982,7.19,72706.8,-17.05,-48.07,-47.93,0,*65
1513530231.19,25983,7.19,72708.0,-17.05,-47.99,-47.79,0,*68
1513530232.43,25984,7.19,72708.3,-17.05,-47.99,-47.71,0,*67
1513530233.69,25985,7.19,72708.0,-17.03,-47.71,-47.65,0,*63
1513530234.93,25986,7.19,72710.5,-17.03,-47.65,-47.51,0,*62
1513530236.18,25987,7.19,72706.8,-17.05,-48.07,-47.79,0,*64
1513530237.4,25988,7.19,72708.8,-17.05,-48.21,-47.99,0,*61
1513530238.64,25989,7.19,72708.3,-17.05,-47.99,-47.93,0,*66
1513530239.93,25990,7.19,72710.3,-17.03,-47.71,-47.71,0,*62
1513530241.2,25991,7.19,72714.8,-17.05,-47.79,-47.79,0,*65
1513530242.47,25992,7.19,72710.0,-17.05,-47.93,-47.93,0,*66
1513530243.71,25993,7.19,72708.3,-17.05,-47.99,-47.71,0,*61
1513530244.98,25994,7.19,72708.0,-17.05,-47.93,-47.71,0,*6C
1513530246.27,25995,7.19,72708.0,-17.07,-47.93,-47.71,0,*6F
1513530247.57,25996,7.19,72710.8,-17.07,-47.79,-47.71,0,*68
1513530248.79,25997,7.19,72706.3,-17.09,-47.99,-47.85,0,*62
1513530250.06,25998,7.19,72710.0,-17.07,-47.99,-47.79,0,*60
1513530251.36,25999,7.19,72704.5,-17.07,-47.93,-47.71,0,*63
1513530252.65,26000,7.19,72708.5,-17.07,-47.93,-47.79,0,*61
1513530253.95,26001,7.19,72710.3,-17.07,-47.79,-47.79,0,*64
1513530255.25,26002,7.19,72706.3,-17.07,-47.79,-47.71,0,*6F
1513530256.47,26003,7.19,72708.0,-17.09,-48.07,-47.85,0,*6D
1513530257.73,26004,7.19,72710.0,-17.09,-48.07,-47.79,0,*69
1513530258.97,26005,7.19,72708.3,-17.09,-47.85,-47.79,0,*6D
1513530260.22,26006,7.19,72704.5,-17.09,-47.85,-47.79,0,*6E
1513530261.47,26007,7.19,72710.5,-17.09,-47.99,-47.79,0,*62
1513530262.7,26008,7.19,72704.3,-17.09,-48.07,-48.07,0,*63
1513530263.94,26009,7.19,72704.5,-17.09,-48.13,-47.99,0,*6F
1513530265.19,26010,7.19,72706.5,-17.09,-47.85,-47.79,0,*69
1513530266.44,26011,7.19,72706.3,-17.09,-48.13,-48.07,0,*6E
1513530267.69,26012,7.19,72704.0,-17.09,-48.13,-47.99,0,*65
1513530268.93,26013,7.19,72706.3,-17.11,-48.07,-47.99,0,*68
1513530270.19,26014,7.19,72704.8,-17.13,-48.07,-48.13,0,*60
1513530271.46,26015,7.19,72706.3,-17.11,-48.13,-47.99,0,*6B
1513530272.7,26016,7.19,72706.3,-17.11,-47.85,-47.99,0,*68
1513530273.95,26017,7.19,72704.0,-17.11,-47.99,-47.85,0,*69
1513530275.19,26018,7.19,72710.3,-17.11,-47.99,-48.07,0,*63
1513530276.45,26019,7.19,72706.3,-17.13,-48.13,-48.07,0,*6D
1513530277.72,26020,7.19,72708.8,-17.13,-48.13,-48.13,0,*62
1513530278.95,26021,7.19,72704.3,-17.13,-48.21,-48.07,0,*67
1513530280.19,26022,7.19,72706.3,-17.13,-48.07,-47.93,0,*62
1513530281.48,26023,7.19,72704.8,-17.17,-47.93,-47.93,0,*65
1513530282.77,26024,7.19,72710.3,-17.21,-48.13,-47.93,0,*60
1513530284.02,26025,7.19,72710.0,-17.17,-47.85,-47.85,0,*63
1513530285.3,26026,7.19,72704.8,-17.21,-47.71,-47.71,0,*65
1513530286.58,26027,7.19,72706.5,-17.17,-47.71,-47.71,0,*61
1513530287.86,26028,7.19,72708.3,-17.17,-47.71,-47.71,0,*6E
1513530289.12,26029,7.19,72706.5,-17.17,-47.71,-47.65,0,*6A
1513530290.38,26030,7.19,72704.0,-17.17,-47.65,-47.71,0,*62
1513530291.63,26031,7.19,72706.5,-17.17,-47.71,-47.65,0,*63
1513530292.9,26032,7.19,72708.3,-17.17,-47.85,-47.71,0,*6E
1513530294.15,26033,7.19,72704.0,-17.17,-47.85,-47.85,0,*64
1513530295.39,26034,7.19,72704.8,-17.17,-47.85,-47.85,0,*63
1513530296.65,26035,7.19,72708.0,-17.21,-47.99,-47.93,0,*6D
1513530297.91,26036,7.19,72706.0,-17.21,-47.99,-47.93,0,*6E
1513530299.17,26037,7.19,72704.5,-17.21,-47.99,-47.93,0,*6F
1513530300.46,26038,7.19,72708.8,-17.21,-48.13,-47.93,0,*6D
1513530301.74,26039,7.19,72706.3,-17.21,-47.93,-47.93,0,*6B
1513530303.03,26040,7.19,72706.8,-17.21,-47.79,-47.71,0,*6D
1513530304.26,26041,7.19,72710.8,-17.21,-47.51,-47.51,0,*64
1513530305.53,26042,7.19,72706.5,-17.21,-47.57,-47.45,0,*64
1513530306.8,26043,7.19,72704.3,-17.17,-47.45,-47.51,0,*66
1513530308.09,26044,7.19,72710.0,-17.21,-47.79,-47.79,0,*61
1513530309.35,26045,7.19,72706.5,-17.21,-47.85,-47.71,0,*6B
1513530310.64,26046,7.19,72706.0,-17.21,-47.93,-47.79,0,*67
1513530311.9,26047,7.19,72706.0,-17.21,-47.57,-47.71,0,*66
1513530313.19,26048,7.19,72704.5,-17.21,-47.79,-47.79,0,*6D
1513530314.48,26049,7.19,72706.5,-17.21,-47.79,-47.79,0,*6C
1513530315.74,26050,7.19,72708.3,-17.21,-47.99,-47.93,0,*6E
1513530316.96,26051,7.19,72706.3,-17.23,-48.07,-47.99,0,*6F
1513530318.17,26052,7.19,72702.5,-17.23,-47.99,-47.99,0,*64
1513530319.39,26053,7.19,72708.0,-17.23,-48.07,-47.99,0,*6D
1513530320.6,26054,7.19,72704.3,-17.23,-47.99,-47.99,0,*62
1513530321.82,26055,7.19,72704.8,-17.23,-48.07,-47.99,0,*6B
1513530323.04,26056,7.19,72710.3,-17.23,-47.99,-47.85,0,*6D
1513530324.26,26057,7.19,72710.3,-17.23,-48.07,-48.07,0,*61
1513530325.56,26058,7.19,72708.8,-17.25,-47.79,-47.79,0,*68
1513530326.76,26059,7.19,72706.5,-17.23,-47.57,-47.65,0,*6E
1513530328.0,26060,7.19,72704.5,-17.23,-47.79,-47.65,0,*68
1513530329.24,26061,7.19,72708.3,-17.23,-47.79,-47.85,0,*67
1513530330.51,26062,7.19,72706.5,-17.25,-47.85,-47.79,0,*62
1513530331.75,26063,7.19,72706.3,-17.23,-47.79,-47.65,0,*6B
1513530332.98,26064,7.19,72706.0,-17.25,-47.57,-47.57,0,*67
1513530334.19,26065,7.19,72704.0,-17.23,-47.57,-47.57,0,*60
1513530335.43,26066,7.19,72706.5,-17.23,-47.57,-47.37,0,*65
1513530336.7,26067,7.19,72706.5,-17.23,-47.37,-47.37,0,*62
1513530337.99,26068,7.19,72704.0,-17.25,-47.45,-47.37,0,*6E
1513530339.25,26069,7.19,72704.3,-17.21,-47.57,-47.37,0,*68
1513530340.46,26070,7.19,72704.5,-17.23,-47.57,-47.65,0,*65
1513530341.7,26071,7.19,72706.3,-17.23,-47.57,-47.45,0,*66
1513530342.94,26072,7.19,72702.5,-17.23,-47.79,-47.65,0,*6B
1513530344.18,26073,7.19,72706.5,-17.23,-47.79,-47.65,0,*6A
1513530345.42,26074,7.19,72704.5,-17.23,-47.45,-47.57,0,*63
1513530346.69,26075,7.19,72706.0,-17.23,-47.37,-47.45,0,*64
1513530347.93,26076,7.19,72704.3,-17.23,-47.37,-46.97,0,*69
1513530349.15,26077,7.19,72704.5,-17.23,-46.55,-46.55,0,*63
1513530350.41,26078,7.19,72706.5,-17.17,-46.83,-46.61,0,*67
1513530351.65,26079,7.19,72702.0,-17.21,-47.17,-47.09,0,*60
1513530352.91,26080,7.19,72704.5,-17.17,-47.09,-47.03,0,*66
1513530354.14,26081,7.19,72702.3,-17.21,-47.17,-47.09,0,*67
1513530355.37,26082,7.19,72704.0,-17.21,-47.17,-47.09,0,*64
1513530356.67,26083,7.19,72696.5,-17.17,-47.23,-47.23,0,*6F
1513530357.92,26084,7.19,72706.8,-17.17,-47.09,-46.83,0,*6B
1513530359.18,26085,7.19,72702.3,-17.17,-47.09,-47.03,0,*63
1513530360.46,26086,7.19,72704.5,-17.17,-46.89,-46.83,0,*60
1513530361.72,26087,7.19,72704.3,-17.17,-46.83,-46.61,0,*67
1513530363.02,26088,7.19,72706.0,-17.17,-46.89,-46.69,0,*6A
1513530364.27,26089,7.19,72702.0,-17.13,-47.09,-46.89,0,*68
1513530365.51,26090,7.19,72706.3,-17.13,-47.23,-47.09,0,*61
1513530366.77,26091,7.19,72702.3,-17.11,-47.23,-47.17,0,*6D
1513530368.02,26092,7.19,72702.5,-17.13,-47.45,-47.31,0,*68
1513530369.26,26093,7.19,72700.3,-17.13,-47.71,-47.65,0,*6F
1513530370.53,26094,7.19,72702.0,-17.11,-47.37,-47.31,0,*69
1513530371.77,26095,7.19,72698.3,-17.13,-47.65,-47.45,0,*6E
1513530373.01,26096,7.19,72700.0,-17.13,-47.71,-47.51,0,*6D
1513530374.25,26097,7.19,72704.3,-17.13,-47.65,-47.45,0,*6C
1513530375.55,26098,7.19,72700.8,-17.11,-47.23,-47.23,0,*63
1513530376.77,26099,7.19,72702.3,-17.13,-47.31,-47.31,0,*60
1513530378.01,26100,7.19,72700.0,-17.13,-47.71,-47.65,0,*64
1513530379.25,26101,7.19,72700.8,-17.13,-47.65,-47.71,0,*65
1513530380.51,26102,7.19,72700.5,-17.13,-47.71,-47.71,0,*63
1513530381.72,26103,7.19,72700.3,-17.13,-47.65,-47.65,0,*62
1513530382.99,26104,7.19,72702.3,-17.17,-47.45,-47.31,0,*62
1513530384.24,26105,7.19,72700.8,-17.17,-47.31,-47.31,0,*60
1513530385.48,26106,7.19,72706.0,-17.17,-47.51,-47.51,0,*63
1513530386.72,26107,7.19,72706.3,-17.17,-47.51,-47.51,0,*62
1513530388.0,26108,7.19,72702.8,-17.17,-47.71,-47.71,0,*6D
1513530389.28,26109,7.19,72698.8,-17.17,-47.71,-47.71,0,*6C
1513530390.54,26110,7.19,72704.3,-17.21,-47.71,-47.57,0,*65
1513530391.77,26111,7.19,72700.5,-17.17,-47.51,-47.51,0,*65
1513530393.01,26112,7.19,72704.5,-17.17,-47.65,-47.65,0,*66
1513530394.24,26113,7.19,72698.3,-17.17,-47.51,-47.51,0,*67
1513530395.5,26114,7.19,72700.8,-17.21,-47.71,-47.57,0,*61
1513530396.79,26115,7.19,72702.3,-17.21,-47.93,-47.79,0,*60
1513530398.05,26116,7.19,72700.8,-17.17,-47.85,-47.71,0,*69
1513530399.34,26117,7.19,72702.0,-17.21,-47.93,-47.71,0,*6A
1513530400.63,26118,7.19,72702.0,-17.21,-47.79,-47.71,0,*61
1513530401.91,26119,7.19,72702.5,-17.21,-47.71,-47.79,0,*60
1513530403.19,26120,7.19,72702.8,-17.21,-47.71,-47.71,0,*62
1513530404.48,26121,7.19,72704.5,-17.21,-47.79,-47.79,0,*63
1513530405.72,26122,7.19,72702.3,-17.21,-47.51,-47.51,0,*60
1513530406.98,26123,7.19,72704.0,-17.21,-47.51,-47.37,0,*61
1513530408.23,26124,7.19,72702.5,-17.21,-47.71,-47.57,0,*62
1513530409.48,26125,7.19,72702.8,-17.21,-47.71,-47.57,0,*63
1513530410.77,26126,7.19,72708.3,-17.21,-47.71,-47.79,0,*6C
1513530412.0,26127,7.19,72704.3,-17.21,-47.51,-47.51,0,*65
1513530413.26,26128,7.19,72706.3,-17.21,-47.57,-47.37,0,*6C
1513530414.56,26129,7.19,72704.3,-17.21,-47.37,-47.45,0,*6E
1513530415.76,26130,7.19,72704.8,-17.23,-47.65,-47.65,0,*61
1513530417.03,26131,7.19,72706.8,-17.23,-47.79,-47.79,0,*60
1513530418.25,26132,7.19,72706.0,-17.23,-48.07,-47.85,0,*66
1513530419.5,26133,7.19,72704.0,-17.23,-47.85,-47.79,0,*61
1513530420.72,26134,7.19,72702.8,-17.23,-48.07,-47.85,0,*60
1513530421.94,26135,7.19,72702.8,-17.23,-48.07,-47.85,0,*61
1513530423.16,26136,7.19,72704.0,-17.23,-47.99,-48.07,0,*6F
1513530424.4,26137,7.19,72700.0,-17.25,-47.85,-47.85,0,*60
1513530425.62,26138,7.19,72702.5,-17.23,-47.99,-47.85,0,*64
1513530426.84,26139,7.19,72706.5,-17.23,-47.99,-47.99,0,*68
1513530428.05,26140,7.19,72706.3,-17.23,-47.99,-47.99,0,*66
1513530429.32,26141,7.19,72702.8,-17.23,-47.79,-47.79,0,*67
1513530430.58,26142,7.19,72704.0,-17.25,-47.57,-47.45,0,*61
1513530431.85,26143,7.19,72706.3,-17.23,-47.45,-47.45,0,*65
1513530433.13,26144,7.19,72704.3,-17.23,-47.37,-47.45,0,*67
1513530434.42,26145,7.19,72702.0,-17.25,-47.37,-47.45,0,*60
1513530435.65,26146,7.19,72706.5,-17.25,-47.65,-47.65,0,*66
1513530436.88,26147,7.19,72704.0,-17.25,-47.65,-47.65,0,*67
1513530438.15,26148,7.19,72704.3,-17.23,-47.45,-47.37,0,*6B
1513530439.45,26149,7.19,72706.5,-17.25,-47.45,-47.45,0,*69
1513530440.68,26150,7.19,72706.5,-17.23,-47.65,-47.79,0,*6A
1513530441.93,26151,7.19,72706.0,-17.23,-47.85,-47.79,0,*65
1513530443.17,26152,7.19,72704.5,-17.23,-47.79,-47.85,0,*66
1513530444.4,26153,7.19,72706.8,-17.25,-47.57,-47.65,0,*63
1513530445.64,26154,7.19,72706.3,-17.25,-47.57,-47.57,0,*65
1513530446.9,26155,7.19,72710.0,-17.25,-47.65,-47.79,0,*69
1513530448.16,26156,7.19,72704.5,-17.25,-47.45,-47.57,0,*64
1513530449.43,26157,7.19,72708.8,-17.25,-47.57,-47.45,0,*65
1513530450.73,26158,7.19,72704.8,-17.25,-47.37,-47.45,0,*6C
1513530451.96,26159,7.19,72710.0,-17.25,-47.57,-47.65,0,*69
1513530453.23,26160,7.19,72708.3,-17.25,-47.79,-47.85,0,*61
1513530454.52,26161,7.19,72704.5,-17.25,-47.79,-47.79,0,*63
1513530455.76,26162,7.19,72704.8,-17.25,-47.85,-47.85,0,*60
1513530457.06,26163,7.19,72704.8,-17.25,-47.79,-47.79,0,*61
1513530458.35,26164,7.19,72708.5,-17.25,-47.79,-47.79,0,*66
1513530459.61,26165,7.19,72708.3,-17.25,-47.79,-47.57,0,*6B
1513530460.84,26166,7.19,72708.3,-17.25,-47.65,-47.57,0,*65
1513530462.07,26167,7.19,72706.8,-17.25,-47.65,-47.57,0,*64
1513530463.3,26168,7.19,72706.5,-17.25,-47.65,-47.65,0,*6A
1513530464.53,26169,7.19,72708.3,-17.25,-47.65,-47.65,0,*6B
1513530465.77,26170,7.19,72714.0,-17.27,-47.79,-47.65,0,*6C
1513530466.98,26171,7.19,72710.5,-17.27,-47.65,-47.57,0,*61
1513530468.19,26172,7.19,72710.8,-17.27,-47.65,-47.57,0,*62
1513530469.4,26173,7.19,72712.3,-17.27,-47.57,-47.57,0,*62
1513530470.65,26174,7.19,72708.8,-17.27,-47.45,-47.57,0,*66
1513530471.88,26175,7.19,72710.5,-17.29,-47.51,-47.51,0,*6A
1513530473.13,26176,7.19,72708.3,-17.27,-47.45,-47.57,0,*64
1513530474.4,26177,7.19,72708.0,-17.23,-47.45,-47.37,0,*67
1513530475.64,26178,7.19,72706.5,-17.27,-47.57,-47.45,0,*6A
1513530476.85,26179,7.19,72706.8,-17.27,-47.65,-47.65,0,*68
1513530478.09,26180,7.19,72704.8,-17.27,-47.45,-47.65,0,*6C
1513530479.37,26181,7.19,72710.5,-17.27,-47.79,-47.79,0,*6F
1513530480.58,26182,7.19,72708.0,-17.27,-47.65,-47.65,0,*6C
1513530481.85,26183,7.19,72706.3,-17.27,-47.37,-47.37,0,*6D
1513530483.06,26184,7.19,72708.8,-17.27,-47.17,-46.97,0,*63
1513530484.31,26185,7.19,72708.3,-17.25,-46.83,-46.75,0,*60
1513530485.56,26186,7.19,72704.5,-17.25,-46.97,-46.83,0,*6F
1513530486.79,26187,7.19,72704.5,-17.27,-47.17,-47.03,0,*6C
1513530488.02,26188,7.19,72704.8,-17.25,-47.17,-47.17,0,*64
1513530489.29,26189,7.19,72700.5,-17.23,-47.23,-47.37,0,*66
1513530490.58,26190,7.19,72702.8,-17.25,-47.45,-47.45,0,*6D
1513530491.85,26191,7.19,72702.8,-17.23,-47.37,-47.37,0,*6A
1513530493.15,26192,7.19,72702.0,-17.25,-47.45,-47.45,0,*6F
1513530494.38,26193,7.19,72702.8,-17.25,-47.57,-47.65,0,*6F
1513530495.62,26194,7.19,72706.3,-17.23,-47.79,-47.57,0,*63
1513530496.83,26195,7.19,72704.8,-17.23,-47.57,-47.65,0,*6F
1513530498.06,26196,7.19,72700.8,-17.25,-47.57,-47.65,0,*6A
1513530499.27,26197,7.19,72706.8,-17.23,-47.57,-47.65,0,*6D
1513530500.5,26198,7.19,72704.8,-17.25,-47.57,-47.65,0,*64